OKEAN-0
1 25860U 99039A 11124.98136363 .00000421 00000-0 71878-4 0 03007
2 25860 097.8800 092.6264 0001745 094.5692 265.5715 14.73771058634294
NOAA-16
1 26536U 00055A 11124.80007776 -.00000059 00000-0 -68234-5 0 02847
2 26536 099.1423 154.4545 0011105 150.9425 209.2362 14.12612934547232
NOAA-17
1 27453U 02032A 11124.90142894 .00000121 00000-0 70538-4 0 02785
2 27453 098.3822 166.5897 0010716 276.3569 083.6357 14.24266632460491
NOAA-18
1 28654U 05018A 11124.92976645 .00000222 00000-0 14710-3 0 07581
2 28654 098.9922 075.9784 0013670 224.7821 135.2284 14.11468214306825
NOAA-19
1 33591U 09005A 11124.91747800 -.00000026 00000-0 96880-5 0 09502
2 33591 098.8244 065.8047 0015019 097.4244 262.8651 14.11159166115286
HUBBLE
1 20580U 90037B 11123.84563713 .00001993 00000-0 13844-3 0 7587
2 20580 028.4711 306.0920 0003234 008.7594 351.3362 15.01330296952981
ISS
1 25544U 98067A 11126.07665311 .00027365 00000-0 18770-3 0 3049
2 25544 051.6459 016.9971 0002718 218.8539 244.0236 15.74499380714271
CO-58
1 28895U 05043F 11125.57713461 .00000546 00000-0 12263-3 0 8652
2 28895 097.9709 003.5993 0017655 358.4736 001.6373 14.60085230294020
FALCON
1 30776U 07006E 11124.71249023 .00003560 00000-0 25181-3 0 785
2 30776 035.4345 251.3040 0001061 033.2808 326.7976 15.04525874228492
MAST
1 31126U 07012K 11125.56818653 .00000456 00000-0 11328-3 0 1507
2 31126 097.8998 155.1967 0093599 303.9568 055.2754 14.53735252214897
CAPE1
1 31130U 07012P 11124.96350307 .00000806 00000-0 19574-3 0 01692
2 31130 097.8998 151.4553 0101721 316.2369 043.0848 14.52373819214362
COMPASS
1 32787U 08021E 11125.68628627 .00002011 00000-0 25745-3 0 9779
2 32787 097.8498 190.2883 0014841 318.2483 041.7582 14.82363274163267
AAUSAT2
1 32788U 08021F 11124.71036763 .00002106 00000-0 26818-3 0 09707
2 32788 097.8505 189.5405 0014424 322.3422 037.6807 14.82540846163136
DO-64
1 32789U 08021G 11124.86811465 .00003162 00000-0 39529-3 0 09867
2 32789 097.8603 190.6185 0014308 319.4069 040.6045 14.82962602163168
CO-66
1 32791U 08021J 11125.22161637 .00001763 00000-0 22808-3 0 9700
2 32791 097.8503 189.7866 0015414 319.0621 040.9390 14.82065253163144
RS-30
1 32953U 08025A 11125.72988548 .00000010 00000-0 00000 0 0 7008
2 32953 082.5042 189.1151 0020387 118.1866 242.1276 12.43012320133810
TACSAT-3
1 35001U 09028A 11125.29870189 .00025306 00000-0 47308-3 0 5821
2 35001 040.4531 072.9951 0024522 251.8917 107.9228 15.47774442110432
PHARMSAT
1 35002U 09028B 11125.25695736 .00022041 00000-0 41544-3 0 5415
2 35002 040.4640 070.8088 0025463 259.8646 099.9290 15.47569928110456
HAWKSAT1
1 35003U 09028C 11125.86704247 .00084815 00000-0 96852-3 0 6062
2 35003 040.4542 044.1616 0024023 284.9818 074.8078 15.60778733110806
CP6
1 35004U 09028D 11125.85371899 .00114009 00000-0 10802-2 0 6109
2 35004 040.4566 037.6910 0023331 287.1272 072.5434 15.65415678110865
METEOR-M
1 35865U 09049A 11125.71744284 .00000176 00000-0 10000-3 0 3381
2 35865 098.7092 181.3881 0002664 135.8451 224.2904 14.21837794 84550
RS-38
1 35869U 09049E 11125.72269207 .00000177 00000-0 10000-3 0 3362
2 35869 098.7062 181.4314 0004876 144.5352 215.6124 14.22009163 84568
